CAPE
nan nan nan nan nan nan nan nan nan nan nan nan nan nan nan nan nan nan nan nan nan nan nan nan nan nan nan 5 6 6 8 10 8 8 9 8 5 5 4 4 4 2 1 0 0 nan nan nan nan nan nan nan nan nan nan nan nan nan nan nan nan nan nan nan nan 1 2 3 5 5 6 7 7 7 6 6 9 9 10 12 12 10 10 11 11 12
nan nan nan nan nan nan nan nan nan nan nan nan 0 0 0 nan nan nan nan nan nan nan nan nan nan nan nan 0 6 6 7 8 8 8 9 8 6 6 4 3 3 2 1 0 0 nan nan 0 0 0 0 nan nan nan nan nan nan nan nan nan nan nan nan nan nan 0 1 1 1 1 2 3 3 3 3 4 8 8 12 14 14 13 12 13 13 12
nan nan nan nan nan nan nan nan nan nan nan nan 0 0 0 nan nan nan nan nan nan nan nan nan nan nan nan nan 5 5 6 8 10 10 9 7 4 4 2 2 2 1 0 0 0 nan nan nan nan 0 0 0 nan nan nan nan nan nan nan nan nan nan nan nan nan nan nan nan nan nan nan 0 1 1 1 3 6 6 10 13 13 13 11 10 10 10
nan nan nan nan nan nan nan nan nan nan nan 0 1 1 nan nan nan nan nan nan nan nan nan nan nan nan nan nan 4 4 8 8 12 12 10 9 6 6 4 2 2 2 2 1 1 0 0 0 0 0 1 0 0 0 nan nan nan nan nan nan nan nan nan nan nan nan nan nan nan nan nan nan nan nan 0 2 3 3 5 6 6 6 7 7 7 8
nan nan nan nan nan nan nan nan 0 0 1 nan 0 0 nan nan nan nan nan nan nan nan nan nan nan nan nan nan nan nan 4 7 8 8 8 8 7 7 6 5 5 4 3 3 3 2 1 1 1 1 1 0 nan nan nan nan nan nan nan nan nan nan nan nan nan nan nan nan nan nan nan nan nan nan nan 1 1 1 2 3 3 3 4 7 7 8
nan nan nan nan nan nan nan nan 0 0 nan nan nan nan nan nan nan nan nan nan nan nan nan nan nan nan nan nan nan nan nan 0 1 1 3 3 4 4 4 3 3 4 4 3 3 3 2 1 1 1 nan nan nan nan nan nan nan nan nan nan nan nan nan nan nan nan nan nan nan nan nan nan nan nan nan nan 1 1 1 2 2 2 4 6 6 8
nan nan nan nan nan nan nan nan 0 0 nan nan nan nan nan nan nan nan nan nan nan nan nan nan nan nan nan nan nan nan nan nan nan nan nan nan nan nan nan 0 0 0 0 0 0 0 0 nan nan nan nan nan nan nan nan nan nan nan nan nan nan nan nan nan nan nan nan nan nan nan nan nan nan nan nan nan 0 0 2 3 3 4 6 8 8 8
nan nan nan nan nan nan 0 nan nan nan nan nan nan nan nan nan nan nan nan nan nan nan nan nan nan nan nan nan nan nan nan nan nan nan nan nan nan nan nan nan nan nan nan nan nan nan nan nan nan nan nan nan nan nan nan nan nan nan nan nan nan nan nan nan nan nan nan nan nan nan nan nan nan nan nan nan nan nan 2 5 5 8 14 18 18 20
nan nan nan nan nan nan nan nan nan nan nan nan nan nan nan nan nan nan nan nan nan nan nan nan nan nan nan nan nan nan nan nan nan nan nan nan nan nan nan nan nan nan nan nan nan nan nan nan nan nan nan nan nan nan nan nan nan nan nan nan nan nan nan nan nan nan nan nan nan nan nan nan nan nan nan nan nan nan 1 3 3 8 13 18 18 22
nan nan nan nan nan nan nan nan nan nan nan nan nan nan nan nan nan nan nan nan nan nan nan nan nan nan nan nan nan nan nan nan nan nan nan nan nan nan nan nan nan nan nan nan nan nan nan nan nan nan nan nan nan nan nan nan nan nan nan nan nan nan nan nan nan nan nan nan nan nan nan nan nan nan nan nan 0 0 1 3 3 6 11 15 15 19
nan nan nan nan nan nan nan nan nan nan nan nan nan nan nan nan nan nan nan nan nan nan nan nan nan nan nan nan nan nan nan nan nan nan nan nan nan nan nan nan nan nan nan nan nan nan nan nan nan nan nan nan nan nan nan nan nan nan nan nan nan nan nan nan nan nan nan nan nan nan nan nan nan nan nan nan 1 1 2 3 3 5 8 11 11 15
nan nan nan nan nan nan nan nan nan nan nan nan nan nan nan nan nan nan nan nan nan nan nan nan nan nan nan nan nan nan nan nan nan nan nan nan nan nan nan nan nan nan nan nan nan nan nan nan nan nan nan nan nan nan nan nan nan nan nan nan nan nan nan nan nan nan nan nan nan nan nan nan nan nan nan 0 2 2 3 3 3 5 6 8 8 12
nan nan nan nan nan nan nan nan nan nan nan nan nan nan nan nan nan nan nan nan nan nan nan nan nan nan nan nan nan nan nan nan nan nan nan nan nan nan nan nan nan nan nan nan nan nan nan nan nan nan nan nan nan nan nan nan nan nan nan nan nan nan nan nan nan nan nan nan nan nan nan nan nan nan nan 0 2 2 3 4 4 5 6 7 7 12
nan nan nan nan nan nan nan nan nan nan nan nan nan nan nan nan nan nan nan nan nan nan nan nan nan nan nan nan nan nan nan nan nan nan nan nan nan nan nan nan nan nan nan nan nan nan nan nan nan nan nan nan nan nan nan nan nan nan nan nan nan nan nan nan nan nan nan nan nan nan nan nan nan nan nan 1 3 3 4 4 4 5 7 8 8 13
nan nan nan nan nan nan nan nan nan nan nan nan nan nan nan nan nan nan nan nan nan nan nan nan nan nan nan nan nan nan nan nan nan nan nan nan nan nan nan nan nan nan nan nan nan nan nan nan nan nan nan nan nan nan nan nan nan nan nan nan nan nan nan nan nan nan 0 1 0 0 0 0 0 0 0 2 3 3 5 6 6 6 7 9 9 13
nan nan nan nan nan nan nan nan nan nan nan nan nan nan nan nan nan nan nan nan nan nan nan nan nan nan nan nan nan nan nan nan nan nan nan nan nan nan nan nan nan nan nan nan nan nan nan nan nan nan nan nan nan nan nan nan nan nan nan nan nan nan nan nan nan 0 2 2 2 2 1 1 1 1 2 3 4 4 5 7 7 8 9 10 10 13
nan nan nan nan nan nan nan nan nan nan nan nan nan nan nan nan nan nan nan nan nan nan nan nan nan nan nan nan nan nan nan nan nan nan nan nan nan nan nan nan nan nan nan nan nan nan nan nan nan nan nan nan nan nan nan nan nan nan nan nan nan nan nan nan nan 0 2 3 3 3 2 3 3 3 3 4 5 5 7 8 8 10 11 12 12 12
nan nan nan nan nan nan nan nan nan nan nan nan nan nan nan nan nan nan nan nan nan nan nan nan nan nan nan nan nan nan nan nan nan nan nan nan nan nan nan nan nan nan nan nan nan nan nan nan nan nan nan nan nan nan nan nan nan nan nan nan nan nan nan nan nan 0 2 3 3 3 3 4 4 4 5 5 6 6 8 9 9 11 12 12 12 11
nan nan nan nan nan nan nan nan nan nan nan nan nan nan nan nan nan nan nan nan nan nan nan nan nan nan nan nan nan nan nan nan nan nan nan nan nan nan nan nan nan nan nan nan nan nan nan nan nan nan nan nan nan nan nan nan nan nan nan nan nan nan nan nan nan nan 0 2 4 4 3 4 4 4 5 6 7 7 8 9 9 10 11 11 11 11
nan nan nan nan nan nan nan nan nan nan nan nan nan nan nan nan nan nan nan nan nan nan nan nan nan nan nan nan nan nan nan nan nan nan nan nan nan nan nan nan nan nan nan nan nan nan nan nan nan nan nan nan nan nan nan nan nan nan nan nan nan nan nan nan nan nan 0 1 2 2 3 4 4 4 4 5 6 6 7 8 8 9 8 9 9 10
nan nan nan nan nan nan nan nan nan nan nan nan nan nan nan nan nan nan nan nan nan nan nan nan nan nan nan nan nan nan nan nan nan nan nan nan nan nan nan nan nan nan nan nan nan nan nan nan nan nan nan nan nan nan nan nan nan nan nan nan nan nan nan nan nan 0 0 0 1 1 2 2 3 3 4 4 4 4 5 6 6 7 7 8 8 9
nan nan nan nan nan nan nan nan nan nan nan nan nan nan nan nan nan nan nan nan nan nan nan nan nan nan nan nan nan nan nan nan nan nan nan nan nan nan nan nan nan nan nan nan nan nan nan nan nan nan nan nan nan nan nan nan nan nan nan nan nan nan nan nan nan nan nan 0 0 0 1 1 2 2 3 3 4 4 4 4 4 6 7 7 7 7
nan nan nan nan nan nan nan nan nan nan nan nan nan nan nan nan nan nan nan nan nan nan nan nan nan nan nan nan nan nan nan nan nan nan nan nan nan nan nan nan nan nan nan nan nan nan nan nan nan nan nan nan nan nan nan nan nan nan nan nan nan nan nan nan nan nan nan nan 0 0 1 1 2 2 3 3 4 4 4 5 5 5 6 7 7 6
nan nan nan nan nan nan nan nan nan nan nan nan nan nan nan nan nan nan nan nan nan nan nan nan nan nan nan nan nan nan nan nan nan nan nan nan nan nan nan nan nan nan nan nan nan nan nan nan nan nan nan nan nan nan nan nan nan nan nan nan nan nan nan nan nan nan nan 0 1 1 1 2 2 2 3 4 4 4 5 5 5 6 7 7 7 7
nan nan nan nan nan nan nan nan nan nan nan nan nan nan nan nan nan nan nan nan nan nan nan nan nan nan nan nan nan nan nan nan nan nan nan nan nan nan nan nan nan nan nan nan nan nan nan nan nan nan nan nan nan nan nan nan nan nan nan nan nan nan 0 0 0 0 0 0 1 1 1 1 1 1 2 3 3 3 4 4 4 4 5 5 5 5
nan nan nan nan nan nan nan nan nan nan nan nan nan nan nan nan nan nan nan nan nan nan nan nan nan nan nan nan nan nan nan nan nan nan nan nan nan nan nan nan nan nan nan nan nan nan nan nan nan nan nan nan nan nan nan nan nan nan nan nan nan 0 0 nan nan nan nan nan 0 0 0 0 0 0 1 1 1 1 2 2 2 1 2 2 2 2
nan nan nan nan nan nan nan nan nan nan nan nan nan nan nan nan nan nan nan nan nan nan nan nan nan nan nan nan nan nan nan nan nan nan nan nan nan nan nan nan nan nan nan nan nan nan nan nan nan nan nan nan nan nan nan nan nan nan nan nan nan nan nan nan nan nan nan nan nan nan nan nan nan nan nan nan 0 0 0 0 0 0 0 1 1 2
0 nan nan nan nan nan nan nan nan nan nan nan nan nan nan nan nan nan nan nan nan nan nan nan nan nan nan nan nan nan nan nan nan nan nan nan nan nan nan nan nan nan nan nan nan nan nan nan nan nan nan nan nan nan nan nan nan nan nan nan nan nan nan nan nan nan nan nan nan nan nan nan nan nan nan nan nan nan 0 0 0 0 1 nan nan nan
nan nan nan nan nan nan nan nan nan nan nan nan nan nan nan nan nan nan nan nan nan nan nan nan nan nan nan nan nan nan nan nan nan nan nan nan nan nan nan nan nan nan nan nan nan nan nan nan nan nan nan nan nan nan nan nan nan nan nan nan nan nan nan nan nan nan nan nan nan nan nan nan nan nan nan nan nan nan 0 0 0 1 0 nan nan nan
nan nan nan nan nan nan nan nan nan nan nan nan nan nan nan nan nan nan nan nan nan nan nan nan nan nan nan nan nan nan nan nan nan nan nan nan nan nan nan nan nan nan nan nan nan nan nan nan nan nan nan nan nan nan nan nan nan nan nan nan nan nan nan nan nan nan nan nan nan nan nan nan nan nan nan nan 0 0 0 1 1 0 nan nan nan nan
nan nan nan nan nan nan nan nan nan nan nan nan nan nan nan nan nan nan nan nan nan nan nan nan nan nan nan nan nan nan nan nan nan nan nan nan nan nan nan nan nan nan nan nan nan nan nan nan nan nan nan nan nan nan nan nan nan nan nan nan nan nan nan nan nan nan nan nan nan nan nan nan nan nan nan 0 0 0 0 1 1 nan nan nan nan nan
nan nan nan nan nan nan nan nan nan nan nan nan nan nan nan nan nan nan nan nan nan nan nan nan nan nan nan nan nan nan nan nan nan nan nan nan nan nan nan nan nan nan nan nan nan nan nan nan nan nan nan nan nan nan nan nan nan nan nan nan nan nan nan nan nan nan nan nan nan nan nan nan nan nan nan nan nan nan nan 0 0 0 nan nan nan nan
nan nan nan nan nan nan nan nan nan nan nan nan nan nan nan nan nan nan nan nan nan nan nan nan nan nan nan nan nan nan nan nan nan nan nan nan nan nan nan nan nan nan nan nan nan nan nan nan nan nan nan nan nan nan nan nan nan nan nan nan nan nan nan nan nan nan nan nan nan nan nan nan nan nan nan nan nan nan nan nan nan 0 nan nan nan nan
nan nan nan nan nan nan nan nan nan nan nan nan nan nan nan nan nan nan nan nan nan nan nan nan nan nan nan nan nan nan nan nan nan nan nan nan nan nan nan nan nan nan nan nan nan nan nan nan nan nan nan nan nan nan nan nan nan nan nan nan nan nan nan nan nan nan nan nan nan nan nan nan nan nan nan nan nan nan nan nan nan 0 1 nan nan nan
nan nan nan nan nan nan nan nan nan nan nan nan nan nan nan nan nan nan nan nan nan nan nan nan nan nan nan nan nan nan nan nan nan nan nan nan nan nan nan nan nan nan nan nan nan nan nan nan nan nan nan nan nan nan nan nan nan nan nan nan nan nan nan nan nan nan nan nan nan nan nan nan nan nan nan nan nan nan nan nan nan 0 1 3 3 nan
nan nan nan nan nan nan nan nan nan nan nan nan nan nan nan nan nan nan nan nan nan nan nan nan nan nan nan nan nan nan nan nan nan nan nan nan nan nan nan nan nan nan nan nan nan nan nan nan nan nan nan nan nan nan nan nan nan nan nan nan nan nan nan nan nan nan nan nan nan nan nan nan nan nan nan nan nan nan nan 0 0 0 1 2 2 3
nan nan nan nan nan nan nan nan nan nan nan nan nan nan nan nan nan nan nan nan nan nan nan nan nan nan nan nan nan nan nan nan nan nan nan nan nan nan nan nan nan nan nan nan nan nan nan nan nan nan nan nan nan nan nan nan nan nan nan nan nan nan nan nan nan nan nan nan nan nan nan nan nan nan nan nan nan nan nan 0 0 nan nan 0 0 2
nan nan nan nan nan nan nan nan nan nan nan nan nan nan nan nan nan nan nan nan nan nan nan nan nan nan nan nan nan nan nan nan nan nan nan nan nan nan nan nan nan nan nan nan nan nan nan nan nan nan nan nan nan nan nan nan nan nan nan nan nan nan nan nan nan nan nan nan nan nan nan nan nan nan nan nan nan nan nan nan nan nan nan nan nan 0
nan nan nan nan nan nan nan nan nan nan nan nan nan nan nan nan nan nan nan nan nan nan nan nan nan nan nan nan nan nan nan nan nan nan nan nan nan nan nan nan nan nan nan nan nan nan nan nan nan nan nan nan nan nan nan nan nan nan nan nan nan nan nan nan nan nan nan nan nan nan nan nan nan nan nan nan nan nan nan nan nan nan nan nan nan nan
nan nan nan nan nan nan nan nan nan nan nan nan nan nan nan nan nan nan nan nan nan nan nan nan nan nan nan nan nan nan nan nan nan nan nan nan nan nan nan nan nan nan nan nan nan nan nan nan nan nan nan nan nan nan nan nan nan nan nan nan nan nan nan nan nan nan nan nan nan nan nan nan nan nan nan nan nan nan nan nan nan nan nan nan nan nan
nan nan nan nan nan nan nan nan nan nan nan nan nan nan nan nan nan nan nan nan nan nan nan nan nan nan nan nan nan nan nan nan nan nan nan nan nan nan nan nan nan nan nan nan nan nan nan nan nan nan nan nan nan nan nan nan nan nan nan nan nan nan nan nan nan nan nan nan nan nan nan nan nan nan nan nan nan nan nan nan nan nan nan nan nan nan
nan nan nan nan nan nan nan nan nan nan nan nan nan nan nan nan nan nan nan nan nan nan nan nan nan nan nan nan nan nan nan nan nan nan nan nan nan nan nan nan nan nan nan nan nan nan nan nan nan nan nan nan nan nan nan nan nan nan nan nan nan nan nan nan nan nan nan nan nan nan nan nan nan nan nan nan nan nan nan nan nan nan nan nan nan nan
nan nan nan nan nan nan nan nan nan nan nan nan nan nan nan nan nan nan nan nan nan nan nan nan nan nan nan nan nan nan nan nan nan nan nan nan nan nan nan nan nan nan nan nan nan nan nan nan nan nan nan nan nan nan nan nan nan nan nan nan nan nan nan nan nan nan nan nan nan nan nan nan nan nan nan nan nan nan nan nan nan nan nan nan nan nan
nan nan nan nan nan nan nan nan nan nan nan nan nan nan nan nan nan nan nan nan nan nan nan nan nan nan nan nan nan nan nan nan nan nan nan nan nan nan nan nan nan nan nan nan nan nan nan nan nan nan nan nan nan nan nan nan nan nan nan nan nan nan nan nan nan nan nan nan nan nan nan nan nan nan nan nan nan nan nan nan nan nan nan nan nan nan
nan nan nan nan nan nan nan nan nan nan nan nan nan nan nan nan nan nan nan nan nan nan nan nan nan nan nan nan nan nan nan nan nan nan nan nan nan nan nan nan nan nan nan nan nan nan nan nan nan nan nan nan nan nan nan nan nan nan nan nan nan nan nan nan nan nan nan nan nan nan nan nan nan nan nan nan nan nan nan nan nan nan nan nan nan nan
nan nan nan nan nan nan nan nan nan nan nan nan nan nan nan nan nan nan nan nan nan nan nan nan nan nan nan nan nan nan nan nan nan nan nan nan nan nan nan nan nan nan nan nan nan nan nan nan nan nan nan nan nan nan nan nan nan nan nan nan nan nan nan nan nan nan nan nan nan nan nan nan nan nan nan nan nan nan nan nan nan nan nan nan nan nan
nan nan nan nan nan nan nan nan nan nan nan nan nan nan nan nan nan nan nan nan nan nan nan nan nan nan nan nan nan nan nan nan nan nan nan nan nan nan nan nan nan nan nan nan nan nan nan nan nan nan nan nan nan nan nan nan nan nan nan nan nan nan nan nan nan nan nan nan nan nan nan nan nan nan nan nan nan nan nan nan nan nan nan nan nan nan
nan nan nan nan nan nan nan nan nan nan nan nan nan nan nan nan nan nan nan nan nan nan nan nan nan nan nan nan nan nan nan nan nan nan nan nan nan nan nan nan nan nan nan nan nan nan nan nan nan nan nan nan nan nan nan nan nan nan nan nan nan nan nan nan nan nan nan nan nan nan nan nan nan nan nan nan nan nan nan nan nan nan nan nan nan nan
nan nan nan nan nan nan nan nan nan nan nan nan nan nan nan nan nan nan nan nan nan nan nan nan nan nan nan nan nan nan nan nan nan nan nan nan nan nan nan nan nan nan nan nan nan nan 0 0 0 nan nan nan nan nan nan nan nan nan nan nan nan nan nan nan nan nan nan nan nan nan nan nan nan nan nan nan nan nan nan nan nan nan nan nan nan nan
nan nan nan nan nan nan nan nan nan nan nan nan nan nan nan nan nan nan nan nan nan nan nan nan nan nan nan nan nan nan nan nan nan nan nan nan nan nan nan nan nan nan nan nan nan nan nan nan nan 0 4 nan nan nan nan nan nan nan nan nan nan nan nan nan nan nan nan nan nan nan nan nan nan nan nan nan nan nan nan nan nan nan nan nan nan nan
nan nan nan nan nan nan nan nan nan nan nan nan nan nan nan nan nan nan nan nan nan nan nan nan nan nan nan nan nan nan nan nan nan nan nan nan nan nan nan nan nan nan nan nan nan nan nan nan nan nan nan 6 nan nan nan nan nan nan nan nan nan nan nan nan nan nan nan nan nan nan nan nan nan nan nan nan nan nan nan nan nan nan nan nan nan nan
CIN
nan nan nan nan nan nan nan nan nan nan nan nan nan nan nan nan nan nan nan nan nan nan nan nan nan nan nan -0 -0 -0 -0 -0 -0 -0 -0 -0 -0 -0 -0 -0 -0 -0 -0 -0 -0 nan nan nan nan nan nan nan nan nan nan nan nan nan nan nan nan nan nan nan nan -0 -0 -0 -0 -0 -0 -0 -0 -0 -0 -0 -0 -0 -0 -0 -0 -0 -0 -0 -0 -0
nan nan nan nan nan nan nan nan nan nan nan nan -12 -12 -11 nan nan nan nan nan nan nan nan nan nan nan nan -2 -0 -0 -0 -0 -0 -0 -0 -0 -0 -0 -0 -0 -0 -0 -0 -0 -0 nan nan -0 -0 -0 -0 nan nan nan nan nan nan nan nan nan nan nan nan nan nan -0 -0 -0 -0 -0 -0 -0 -0 -0 -0 -0 -0 -0 -0 -0 -0 -0 -0 -0 -0 -0
nan nan nan nan nan nan nan nan nan nan nan nan -11 -11 -14 nan nan nan nan nan nan nan nan nan nan nan nan nan -0 -0 -0 -0 -0 -0 -0 -0 -0 -0 -0 -0 -0 -0 -0 -0 -0 nan nan nan nan -0 -0 -0 nan nan nan nan nan nan nan nan nan nan nan nan nan nan nan nan nan nan nan -0 -0 -0 -0 -0 -0 -0 -0 -0 -0 -0 -0 -0 -0 -0
nan nan nan nan nan nan nan nan nan nan nan -13 -11 -11 nan nan nan nan nan nan nan nan nan nan nan nan nan nan -4 -4 -0 -0 -0 -0 -0 -0 -0 -0 -0 -0 -0 -0 -0 -0 -0 -0 -0 -0 -0 -0 -0 -0 -0 -0 nan nan nan nan nan nan nan nan nan nan nan nan nan nan nan nan nan nan nan nan -0 -0 -0 -0 -0 -0 -0 -0 -0 -0 -0 -0
nan nan nan nan nan nan nan nan -14 -14 -12 nan -15 -15 nan nan nan nan nan nan nan nan nan nan nan nan nan nan nan nan -0 -0 -0 -0 -0 -0 -0 -0 -0 -0 -0 -0 -0 -0 -0 -0 -0 -0 -0 -0 -0 -0 nan nan nan nan nan nan nan nan nan nan nan nan nan nan nan nan nan nan nan nan nan nan nan -0 -0 -0 -0 -0 -0 -0 -0 -0 -0 -0
nan nan nan nan nan nan nan nan -13 -13 nan nan nan nan nan nan nan nan nan nan nan nan nan nan nan nan nan nan nan nan nan -0 -0 -0 -0 -0 -0 -0 -0 -0 -0 -0 -0 -0 -0 -0 -0 -0 -0 -0 nan nan nan nan nan nan nan nan nan nan nan nan nan nan nan nan nan nan nan nan nan nan nan nan nan nan -0 -0 -0 -0 -0 -0 -0 -0 -0 -0
nan nan nan nan nan nan nan nan -12 -12 nan nan nan nan nan nan nan nan nan nan nan nan nan nan nan nan nan nan nan nan nan nan nan nan nan nan nan nan nan -0 -0 -0 -0 -0 -0 -0 -0 nan nan nan nan nan nan nan nan nan nan nan nan nan nan nan nan nan nan nan nan nan nan nan nan nan nan nan nan nan -0 -0 -0 -0 -0 -0 -0 -0 -0 -0
nan nan nan nan nan nan -6 nan nan nan nan nan nan nan nan nan nan nan nan nan nan nan nan nan nan nan nan nan nan nan nan nan nan nan nan nan nan nan nan nan nan nan nan nan nan nan nan nan nan nan nan nan nan nan nan nan nan nan nan nan nan nan nan nan nan nan nan nan nan nan nan nan nan nan nan nan nan nan -0 -0 -0 -0 -0 -0 -0 -0
nan nan nan nan nan nan nan nan nan nan nan nan nan nan nan nan nan nan nan nan nan nan nan nan nan nan nan nan nan nan nan nan nan nan nan nan nan nan nan nan nan nan nan nan nan nan nan nan nan nan nan nan nan nan nan nan nan nan nan nan nan nan nan nan nan nan nan nan nan nan nan nan nan nan nan nan nan nan -0 -0 -0 -0 -0 -0 -0 -0
nan nan nan nan nan nan nan nan nan nan nan nan nan nan nan nan nan nan nan nan nan nan nan nan nan nan nan nan nan nan nan nan nan nan nan nan nan nan nan nan nan nan nan nan nan nan nan nan nan nan nan nan nan nan nan nan nan nan nan nan nan nan nan nan nan nan nan nan nan nan nan nan nan nan nan nan -0 -0 -0 -0 -0 -0 -0 -0 -0 -0
nan nan nan nan nan nan nan nan nan nan nan nan nan nan nan nan nan nan nan nan nan nan nan nan nan nan nan nan nan nan nan nan nan nan nan nan nan nan nan nan nan nan nan nan nan nan nan nan nan nan nan nan nan nan nan nan nan nan nan nan nan nan nan nan nan nan nan nan nan nan nan nan nan nan nan nan -0 -0 -0 -0 -0 -0 -0 -0 -0 -0
nan nan nan nan nan nan nan nan nan nan nan nan nan nan nan nan nan nan nan nan nan nan nan nan nan nan nan nan nan nan nan nan nan nan nan nan nan nan nan nan nan nan nan nan nan nan nan nan nan nan nan nan nan nan nan nan nan nan nan nan nan nan nan nan nan nan nan nan nan nan nan nan nan nan nan -0 -0 -0 -0 -0 -0 -0 -0 -0 -0 -0
nan nan nan nan nan nan nan nan nan nan nan nan nan nan nan nan nan nan nan nan nan nan nan nan nan nan nan nan nan nan nan nan nan nan nan nan nan nan nan nan nan nan nan nan nan nan nan nan nan nan nan nan nan nan nan nan nan nan nan nan nan nan nan nan nan nan nan nan nan nan nan nan nan nan nan -0 -0 -0 -0 -0 -0 -0 -0 -0 -0 -0
nan nan nan nan nan nan nan nan nan nan nan nan nan nan nan nan nan nan nan nan nan nan nan nan nan nan nan nan nan nan nan nan nan nan nan nan nan nan nan nan nan nan nan nan nan nan nan nan nan nan nan nan nan nan nan nan nan nan nan nan nan nan nan nan nan nan nan nan nan nan nan nan nan nan nan -0 -0 -0 -0 -0 -0 -0 -0 -0 -0 -0
nan nan nan nan nan nan nan nan nan nan nan nan nan nan nan nan nan nan nan nan nan nan nan nan nan nan nan nan nan nan nan nan nan nan nan nan nan nan nan nan nan nan nan nan nan nan nan nan nan nan nan nan nan nan nan nan nan nan nan nan nan nan nan nan nan nan -0 -0 -0 -0 -0 -0 -0 -0 -0 -0 -0 -0 -0 -0 -0 -0 -0 -0 -0 -0
nan nan nan nan nan nan nan nan nan nan nan nan nan nan nan nan nan nan nan nan nan nan nan nan nan nan nan nan nan nan nan nan nan nan nan nan nan nan nan nan nan nan nan nan nan nan nan nan nan nan nan nan nan nan nan nan nan nan nan nan nan nan nan nan nan -0 -0 -0 -0 -0 -0 -0 -0 -0 -0 -0 -0 -0 -0 -0 -0 -0 -0 -0 -0 -0
nan nan nan nan nan nan nan nan nan nan nan nan nan nan nan nan nan nan nan nan nan nan nan nan nan nan nan nan nan nan nan nan nan nan nan nan nan nan nan nan nan nan nan nan nan nan nan nan nan nan nan nan nan nan nan nan nan nan nan nan nan nan nan nan nan -0 -0 -0 -0 -0 -0 -0 -0 -0 -0 -0 -0 -0 -0 -0 -0 -0 -0 -0 -0 -0
nan nan nan nan nan nan nan nan nan nan nan nan nan nan nan nan nan nan nan nan nan nan nan nan nan nan nan nan nan nan nan nan nan nan nan nan nan nan nan nan nan nan nan nan nan nan nan nan nan nan nan nan nan nan nan nan nan nan nan nan nan nan nan nan nan -0 -0 -0 -0 -0 -0 -0 -0 -0 -0 -0 -0 -0 -0 -0 -0 -0 -0 -0 -0 -0
nan nan nan nan nan nan nan nan nan nan nan nan nan nan nan nan nan nan nan nan nan nan nan nan nan nan nan nan nan nan nan nan nan nan nan nan nan nan nan nan nan nan nan nan nan nan nan nan nan nan nan nan nan nan nan nan nan nan nan nan nan nan nan nan nan nan -0 -0 -0 -0 -0 -0 -0 -0 -0 -0 -0 -0 -0 -0 -0 -0 -0 -0 -0 -0
nan nan nan nan nan nan nan nan nan nan nan nan nan nan nan nan nan nan nan nan nan nan nan nan nan nan nan nan nan nan nan nan nan nan nan nan nan nan nan nan nan nan nan nan nan nan nan nan nan nan nan nan nan nan nan nan nan nan nan nan nan nan nan nan nan nan -0 -0 -0 -0 -0 -0 -0 -0 -0 -0 -0 -0 -0 -0 -0 -0 -0 -0 -0 -0
nan nan nan nan nan nan nan nan nan nan nan nan nan nan nan nan nan nan nan nan nan nan nan nan nan nan nan nan nan nan nan nan nan nan nan nan nan nan nan nan nan nan nan nan nan nan nan nan nan nan nan nan nan nan nan nan nan nan nan nan nan nan nan nan nan -0 -0 -0 -0 -0 -0 -0 -0 -0 -0 -0 -0 -0 -0 -0 -0 -0 -0 -0 -0 -0
nan nan nan nan nan nan nan nan nan nan nan nan nan nan nan nan nan nan nan nan nan nan nan nan nan nan nan nan nan nan nan nan nan nan nan nan nan nan nan nan nan nan nan nan nan nan nan nan nan nan nan nan nan nan nan nan nan nan nan nan nan nan nan nan nan nan nan -0 -0 -0 -0 -0 -0 -0 -0 -0 -0 -0 -0 -0 -0 -0 -0 -0 -0 -0
nan nan nan nan nan nan nan nan nan nan nan nan nan nan nan nan nan nan nan nan nan nan nan nan nan nan nan nan nan nan nan nan nan nan nan nan nan nan nan nan nan nan nan nan nan nan nan nan nan nan nan nan nan nan nan nan nan nan nan nan nan nan nan nan nan nan nan nan -0 -0 -0 -0 -0 -0 -0 -0 -0 -0 -0 -0 -0 -0 -0 -0 -0 -0
nan nan nan nan nan nan nan nan nan nan nan nan nan nan nan nan nan nan nan nan nan nan nan nan nan nan nan nan nan nan nan nan nan nan nan nan nan nan nan nan nan nan nan nan nan nan nan nan nan nan nan nan nan nan nan nan nan nan nan nan nan nan nan nan nan nan nan -0 -0 -0 -0 -0 -0 -0 -0 -0 -0 -0 -0 -0 -0 -0 -0 -0 -0 -0
nan nan nan nan nan nan nan nan nan nan nan nan nan nan nan nan nan nan nan nan nan nan nan nan nan nan nan nan nan nan nan nan nan nan nan nan nan nan nan nan nan nan nan nan nan nan nan nan nan nan nan nan nan nan nan nan nan nan nan nan nan nan -0 -0 -0 -0 -0 -0 -0 -0 -0 -0 -0 -0 -0 -0 -0 -0 -0 -0 -0 -0 -0 -0 -0 -0
nan nan nan nan nan nan nan nan nan nan nan nan nan nan nan nan nan nan nan nan nan nan nan nan nan nan nan nan nan nan nan nan nan nan nan nan nan nan nan nan nan nan nan nan nan nan nan nan nan nan nan nan nan nan nan nan nan nan nan nan nan -0 -0 nan nan nan nan nan -0 -0 -0 -0 -0 -0 -0 -0 -0 -0 -0 -0 -0 -0 -0 -0 -0 -0
nan nan nan nan nan nan nan nan nan nan nan nan nan nan nan nan nan nan nan nan nan nan nan nan nan nan nan nan nan nan nan nan nan nan nan nan nan nan nan nan nan nan nan nan nan nan nan nan nan nan nan nan nan nan nan nan nan nan nan nan nan nan nan nan nan nan nan nan nan nan nan nan nan nan nan nan -0 -0 -0 -0 -0 -0 -0 -0 -0 -0
-0 nan nan nan nan nan nan nan nan nan nan nan nan nan nan nan nan nan nan nan nan nan nan nan nan nan nan nan nan nan nan nan nan nan nan nan nan nan nan nan nan nan nan nan nan nan nan nan nan nan nan nan nan nan nan nan nan nan nan nan nan nan nan nan nan nan nan nan nan nan nan nan nan nan nan nan nan nan -0 -0 -0 -0 -0 nan nan nan
nan nan nan nan nan nan nan nan nan nan nan nan nan nan nan nan nan nan nan nan nan nan nan nan nan nan nan nan nan nan nan nan nan nan nan nan nan nan nan nan nan nan nan nan nan nan nan nan nan nan nan nan nan nan nan nan nan nan nan nan nan nan nan nan nan nan nan nan nan nan nan nan nan nan nan nan nan nan -0 -0 -0 -0 -1 nan nan nan
nan nan nan nan nan nan nan nan nan nan nan nan nan nan nan nan nan nan nan nan nan nan nan nan nan nan nan nan nan nan nan nan nan nan nan nan nan nan nan nan nan nan nan nan nan nan nan nan nan nan nan nan nan nan nan nan nan nan nan nan nan nan nan nan nan nan nan nan nan nan nan nan nan nan nan nan -0 -0 -0 -0 -0 -1 nan nan nan nan
nan nan nan nan nan nan nan nan nan nan nan nan nan nan nan nan nan nan nan nan nan nan nan nan nan nan nan nan nan nan nan nan nan nan nan nan nan nan nan nan nan nan nan nan nan nan nan nan nan nan nan nan nan nan nan nan nan nan nan nan nan nan nan nan nan nan nan nan nan nan nan nan nan nan nan -0 -0 -0 -0 -0 -0 nan nan nan nan nan
nan nan nan nan nan nan nan nan nan nan nan nan nan nan nan nan nan nan nan nan nan nan nan nan nan nan nan nan nan nan nan nan nan nan nan nan nan nan nan nan nan nan nan nan nan nan nan nan nan nan nan nan nan nan nan nan nan nan nan nan nan nan nan nan nan nan nan nan nan nan nan nan nan nan nan nan nan nan nan -0 -0 -0 nan nan nan nan
nan nan nan nan nan nan nan nan nan nan nan nan nan nan nan nan nan nan nan nan nan nan nan nan nan nan nan nan nan nan nan nan nan nan nan nan nan nan nan nan nan nan nan nan nan nan nan nan nan nan nan nan nan nan nan nan nan nan nan nan nan nan nan nan nan nan nan nan nan nan nan nan nan nan nan nan nan nan nan nan nan -0 nan nan nan nan
nan nan nan nan nan nan nan nan nan nan nan nan nan nan nan nan nan nan nan nan nan nan nan nan nan nan nan nan nan nan nan nan nan nan nan nan nan nan nan nan nan nan nan nan nan nan nan nan nan nan nan nan nan nan nan nan nan nan nan nan nan nan nan nan nan nan nan nan nan nan nan nan nan nan nan nan nan nan nan nan nan -0 -0 nan nan nan
nan nan nan nan nan nan nan nan nan nan nan nan nan nan nan nan nan nan nan nan nan nan nan nan nan nan nan nan nan nan nan nan nan nan nan nan nan nan nan nan nan nan nan nan nan nan nan nan nan nan nan nan nan nan nan nan nan nan nan nan nan nan nan nan nan nan nan nan nan nan nan nan nan nan nan nan nan nan nan nan nan -0 -0 -0 -0 nan
nan nan nan nan nan nan nan nan nan nan nan nan nan nan nan nan nan nan nan nan nan nan nan nan nan nan nan nan nan nan nan nan nan nan nan nan nan nan nan nan nan nan nan nan nan nan nan nan nan nan nan nan nan nan nan nan nan nan nan nan nan nan nan nan nan nan nan nan nan nan nan nan nan nan nan nan nan nan nan -0 -0 -0 -0 -0 -0 -0
nan nan nan nan nan nan nan nan nan nan nan nan nan nan nan nan nan nan nan nan nan nan nan nan nan nan nan nan nan nan nan nan nan nan nan nan nan nan nan nan nan nan nan nan nan nan nan nan nan nan nan nan nan nan nan nan nan nan nan nan nan nan nan nan nan nan nan nan nan nan nan nan nan nan nan nan nan nan nan -0 -0 nan nan -0 -0 -0
nan nan nan nan nan nan nan nan nan nan nan nan nan nan nan nan nan nan nan nan nan nan nan nan nan nan nan nan nan nan nan nan nan nan nan nan nan nan nan nan nan nan nan nan nan nan nan nan nan nan nan nan nan nan nan nan nan nan nan nan nan nan nan nan nan nan nan nan nan nan nan nan nan nan nan nan nan nan nan nan nan nan nan nan nan -0
nan nan nan nan nan nan nan nan nan nan nan nan nan nan nan nan nan nan nan nan nan nan nan nan nan nan nan nan nan nan nan nan nan nan nan nan nan nan nan nan nan nan nan nan nan nan nan nan nan nan nan nan nan nan nan nan nan nan nan nan nan nan nan nan nan nan nan nan nan nan nan nan nan nan nan nan nan nan nan nan nan nan nan nan nan nan
nan nan nan nan nan nan nan nan nan nan nan nan nan nan nan nan nan nan nan nan nan nan nan nan nan nan nan nan nan nan nan nan nan nan nan nan nan nan nan nan nan nan nan nan nan nan nan nan nan nan nan nan nan nan nan nan nan nan nan nan nan nan nan nan nan nan nan nan nan nan nan nan nan nan nan nan nan nan nan nan nan nan nan nan nan nan
nan nan nan nan nan nan nan nan nan nan nan nan nan nan nan nan nan nan nan nan nan nan nan nan nan nan nan nan nan nan nan nan nan nan nan nan nan nan nan nan nan nan nan nan nan nan nan nan nan nan nan nan nan nan nan nan nan nan nan nan nan nan nan nan nan nan nan nan nan nan nan nan nan nan nan nan nan nan nan nan nan nan nan nan nan nan
nan nan nan nan nan nan nan nan nan nan nan nan nan nan nan nan nan nan nan nan nan nan nan nan nan nan nan nan nan nan nan nan nan nan nan nan nan nan nan nan nan nan nan nan nan nan nan nan nan nan nan nan nan nan nan nan nan nan nan nan nan nan nan nan nan nan nan nan nan nan nan nan nan nan nan nan nan nan nan nan nan nan nan nan nan nan
nan nan nan nan nan nan nan nan nan nan nan nan nan nan nan nan nan nan nan nan nan nan nan nan nan nan nan nan nan nan nan nan nan nan nan nan nan nan nan nan nan nan nan nan nan nan nan nan nan nan nan nan nan nan nan nan nan nan nan nan nan nan nan nan nan nan nan nan nan nan nan nan nan nan nan nan nan nan nan nan nan nan nan nan nan nan
nan nan nan nan nan nan nan nan nan nan nan nan nan nan nan nan nan nan nan nan nan nan nan nan nan nan nan nan nan nan nan nan nan nan nan nan nan nan nan nan nan nan nan nan nan nan nan nan nan nan nan nan nan nan nan nan nan nan nan nan nan nan nan nan nan nan nan nan nan nan nan nan nan nan nan nan nan nan nan nan nan nan nan nan nan nan
nan nan nan nan nan nan nan nan nan nan nan nan nan nan nan nan nan nan nan nan nan nan nan nan nan nan nan nan nan nan nan nan nan nan nan nan nan nan nan nan nan nan nan nan nan nan nan nan nan nan nan nan nan nan nan nan nan nan nan nan nan nan nan nan nan nan nan nan nan nan nan nan nan nan nan nan nan nan nan nan nan nan nan nan nan nan
nan nan nan nan nan nan nan nan nan nan nan nan nan nan nan nan nan nan nan nan nan nan nan nan nan nan nan nan nan nan nan nan nan nan nan nan nan nan nan nan nan nan nan nan nan nan nan nan nan nan nan nan nan nan nan nan nan nan nan nan nan nan nan nan nan nan nan nan nan nan nan nan nan nan nan nan nan nan nan nan nan nan nan nan nan nan
nan nan nan nan nan nan nan nan nan nan nan nan nan nan nan nan nan nan nan nan nan nan nan nan nan nan nan nan nan nan nan nan nan nan nan nan nan nan nan nan nan nan nan nan nan nan nan nan nan nan nan nan nan nan nan nan nan nan nan nan nan nan nan nan nan nan nan nan nan nan nan nan nan nan nan nan nan nan nan nan nan nan nan nan nan nan
nan nan nan nan nan nan nan nan nan nan nan nan nan nan nan nan nan nan nan nan nan nan nan nan nan nan nan nan nan nan nan nan nan nan nan nan nan nan nan nan nan nan nan nan nan nan nan nan nan nan nan nan nan nan nan nan nan nan nan nan nan nan nan nan nan nan nan nan nan nan nan nan nan nan nan nan nan nan nan nan nan nan nan nan nan nan
nan nan nan nan nan nan nan nan nan nan nan nan nan nan nan nan nan nan nan nan nan nan nan nan nan nan nan nan nan nan nan nan nan nan nan nan nan nan nan nan nan nan nan nan nan nan -4 -6 -6 nan nan nan nan nan nan nan nan nan nan nan nan nan nan nan nan nan nan nan nan nan nan nan nan nan nan nan nan nan nan nan nan nan nan nan nan nan
nan nan nan nan nan nan nan nan nan nan nan nan nan nan nan nan nan nan nan nan nan nan nan nan nan nan nan nan nan nan nan nan nan nan nan nan nan nan nan nan nan nan nan nan nan nan nan nan nan -7 -1 nan nan nan nan nan nan nan nan nan nan nan nan nan nan nan nan nan nan nan nan nan nan nan nan nan nan nan nan nan nan nan nan nan nan nan
nan nan nan nan nan nan nan nan nan nan nan nan nan nan nan nan nan nan nan nan nan nan nan nan nan nan nan nan nan nan nan nan nan nan nan nan nan nan nan nan nan nan nan nan nan nan nan nan nan nan nan -0 nan nan nan nan nan nan nan nan nan nan nan nan nan nan nan nan nan nan nan nan nan nan nan nan nan nan nan nan nan nan nan nan nan nan
Wind_Speed
1 2 2 2 2 2 1 2 2 2 2 2 2 2 2 3 3 3 4 4 4 3 3 4 4 4 5 7 8 8 8 7 7 7 7 7 7 7 6 6 6 6 6 5 5 5 4 4 4 4 4 4 4 4 4 4 4 4 5 4 4 4 4 4 4 5 5 6 6 6 7 7 7 7 7 7 7 7 6 6 7 7 7 8 8 8
2 1 1 2 3 2 2 2 2 2 2 2 2 2 2 2 1 1 2 3 3 3 3 3 3 4 4 5 6 6 6 5 5 5 5 5 5 5 5 5 5 5 5 5 4 4 4 4 4 4 4 4 3 3 3 4 4 4 4 4 4 4 4 4 4 5 5 6 6 7 7 7 7 7 7 7 7 7 7 7 7 7 7 8 8 8
2 1 1 2 2 2 2 2 2 2 2 2 2 2 2 2 1 1 1 1 2 3 3 3 3 3 3 3 3 4 4 4 4 4 4 4 4 5 5 5 4 4 4 4 4 4 4 4 4 4 4 4 3 3 3 4 4 4 4 4 4 4 4 4 4 5 5 6 7 7 7 7 7 7 7 7 7 7 7 7 7 7 7 8 8 8
2 2 2 1 2 2 2 2 2 2 2 1 1 1 2 2 1 0 1 0 1 2 2 3 3 3 2 2 2 2 3 3 4 4 4 4 4 4 4 4 4 4 4 4 4 3 3 4 4 4 4 4 4 3 3 3 4 4 4 4 4 3 3 4 4 5 5 6 7 7 7 8 8 8 7 7 7 7 7 7 7 8 8 8 8 8
2 2 2 1 1 2 2 2 2 2 1 1 1 1 2 2 1 1 1 0 1 1 2 2 2 3 2 1 2 2 3 3 3 4 4 4 4 4 4 4 4 4 3 3 3 3 3 4 4 4 4 4 3 3 3 3 3 3 3 3 3 3 3 4 4 5 6 6 7 7 8 8 8 8 8 8 8 8 8 8 8 8 8 8 8 8
2 2 2 2 1 1 1 1 1 1 1 1 1 1 1 2 2 1 1 1 1 1 1 1 2 2 3 2 3 3 4 4 3 3 3 3 3 3 3 3 3 3 3 3 3 3 3 4 4 4 3 3 3 3 3 3 3 2 2 2 3 3 4 4 5 6 6 7 7 8 8 8 9 9 9 9 8 8 8 8 8 8 8 8 8 8
2 2 2 2 1 1 1 1 1 1 1 1 1 1 0 1 1 1 1 1 1 1 1 1 1 2 2 3 4 4 4 3 3 3 3 3 3 3 3 3 3 3 3 3 3 3 3 3 3 3 3 3 3 2 2 2 2 2 2 3 3 4 5 5 6 7 7 8 8 8 9 9 9 9 9 9 9 9 8 8 8 8 8 8 8 8
2 2 1 2 1 1 1 1 1 1 1 1 1 0 0 0 0 0 0 0 1 1 1 0 0 0 1 2 2 3 2 2 2 2 2 2 2 2 3 3 3 3 3 3 3 3 3 3 3 2 2 2 1 1 1 1 2 2 3 4 4 5 6 7 7 8 8 9 9 9 9 9 9 10 10 10 9 9 9 8 8 8 8 8 8 8
3 2 2 2 2 2 1 1 1 1 1 1 1 1 1 0 0 0 1 1 1 0 1 1 1 1 1 0 1 1 1 1 1 1 1 1 1 2 2 3 3 3 3 3 2 2 2 1 1 1 0 0 1 1 2 2 3 3 4 5 6 6 7 8 8 9 9 10 10 10 10 10 10 10 10 10 9 9 9 8 8 8 8 8 8 9
3 3 2 2 2 2 2 1 1 1 1 1 1 1 2 1 1 1 1 1 1 1 1 1 1 1 1 1 1 1 1 1 2 2 3 2 2 2 2 2 2 2 2 2 1 1 1 1 2 2 2 3 3 3 4 4 4 5 5 6 7 7 8 9 9 10 10 10 10 10 10 10 10 10 10 9 9 9 9 8 8 8 8 8 8 8
2 2 2 1 1 1 1 1 1 1 1 0 0 0 0 1 2 2 2 1 0 1 1 1 1 1 1 1 2 2 2 2 2 1 2 2 3 3 2 2 1 1 2 2 2 2 3 3 4 4 4 5 5 5 5 5 5 6 6 7 7 7 8 9 9 9 10 10 10 10 10 9 9 9 9 9 9 8 8 8 8 8 8 8 8 8
2 2 2 1 1 1 1 1 1 1 1 1 0 1 1 0 1 3 3 2 1 0 0 1 1 1 1 1 1 2 2 1 1 1 1 1 1 1 1 1 1 1 1 2 2 3 4 4 5 5 5 5 5 5 5 5 5 6 6 6 7 7 8 8 8 9 9 9 9 9 9 9 8 8 8 8 8 8 8 8 7 7 7 7 8 8
2 2 2 1 1 1 1 1 1 1 1 1 1 1 1 1 1 2 3 2 1 1 1 0 1 1 1 1 1 1 1 1 1 1 1 1 0 0 1 0 0 1 1 1 1 2 3 4 4 4 4 4 4 5 5 5 5 5 6 6 6 6 7 7 7 8 8 8 8 8 8 8 8 8 8 8 7 7 7 7 7 7 7 7 7 7
2 2 2 1 1 1 1 1 1 1 1 1 1 2 2 0 1 2 2 1 0 0 1 1 1 1 2 1 1 1 1 1 1 1 1 1 1 1 1 1 0 0 0 1 1 2 2 2 2 2 3 3 3 3 4 4 4 5 5 5 6 6 7 7 7 7 7 7 7 6 6 7 7 7 7 7 7 7 7 7 7 7 7 7 7 7
2 2 2 2 2 2 2 2 2 2 1 1 1 1 1 1 2 2 2 1 1 1 2 2 2 2 2 2 2 1 1 1 1 1 2 2 2 1 1 1 0 0 1 1 1 2 2 1 1 1 2 2 2 2 3 2 3 4 5 6 6 6 7 7 7 7 6 6 6 6 6 6 6 6 6 6 6 6 6 7 7 7 7 7 7 7
2 2 2 2 2 2 2 2 2 1 1 1 1 1 2 1 1 2 2 1 1 1 2 2 2 2 2 3 2 2 1 2 1 1 1 2 2 1 1 2 1 1 1 1 1 1 2 1 1 1 1 2 3 4 5 4 4 5 5 6 6 7 7 7 7 6 6 6 6 5 5 5 5 5 6 6 6 6 6 7 7 7 7 7 7 7
2 2 2 2 2 1 1 1 1 1 1 1 1 1 2 1 1 1 2 1 1 2 2 2 1 1 2 3 3 2 1 2 1 1 1 2 2 2 1 2 1 0 1 1 1 1 1 1 1 1 1 3 5 6 6 6 6 6 6 6 7 7 7 7 7 7 6 6 6 5 5 5 5 5 5 6 6 6 6 7 7 7 7 7 7 8
2 2 2 2 2 1 1 1 1 1 1 1 1 1 1 1 1 1 2 2 2 2 1 1 1 1 1 1 2 2 1 2 2 1 1 2 3 2 1 2 2 1 1 1 1 1 1 1 1 2 3 6 7 7 7 7 7 7 7 7 7 7 7 7 7 7 7 6 6 6 6 6 6 6 6 6 6 6 7 7 7 8 8 8 8 8
1 1 2 2 2 1 1 1 1 1 1 1 1 1 1 1 1 2 2 2 2 2 2 1 1 1 1 1 2 2 1 2 2 2 1 1 2 2 1 1 1 0 0 1 2 2 1 2 2 4 5 7 8 8 8 8 8 8 8 8 7 7 7 7 7 7 7 7 7 6 6 6 6 6 6 6 7 7 7 7 8 8 8 8 8 9
1 1 1 2 2 2 1 1 1 1 2 2 2 3 2 1 1 1 1 1 1 2 2 2 1 1 1 1 2 2 1 2 3 2 0 1 2 2 1 1 1 0 1 2 2 2 1 2 2 4 6 7 8 8 8 8 8 8 8 7 7 8 8 8 8 8 7 7 7 7 7 7 7 7 7 7 7 8 8 8 8 8 9 9 9 9
1 1 1 1 2 3 1 1 0 1 2 2 3 2 2 1 1 1 0 1 1 1 2 1 1 2 2 2 2 2 1 2 3 2 0 1 2 2 1 1 1 1 1 2 2 2 1 2 2 2 4 6 8 8 8 8 8 7 7 7 7 8 8 8 8 8 8 8 8 8 7 7 7 7 8 8 8 8 8 8 9 9 9 9 9 9
2 1 1 1 2 3 2 1 1 1 2 3 3 2 2 1 1 1 0 1 1 1 1 1 2 3 2 2 2 2 1 3 3 3 1 1 2 3 2 0 1 1 1 2 2 2 1 1 2 3 5 7 8 9 9 8 7 7 7 7 7 8 8 8 8 8 8 8 8 8 8 8 8 8 8 8 8 8 8 8 9 9 9 9 9 9
3 2 2 3 3 3 3 3 2 2 3 3 3 3 2 2 2 1 1 1 2 2 2 2 2 1 1 1 1 1 1 2 3 3 2 0 2 3 2 1 1 1 1 2 2 2 2 2 2 3 5 8 9 9 8 7 6 6 6 7 7 8 8 8 8 8 8 8 8 8 7 7 7 7 7 7 7 7 8 8 8 9 9 9 9 9
4 4 4 4 4 4 3 3 3 2 3 3 3 2 2 2 2 2 2 2 2 2 1 0 1 2 2 2 2 1 1 1 3 3 3 1 2 2 2 1 1 1 2 2 2 1 1 2 2 3 4 7 8 7 6 4 4 5 6 6 7 7 7 7 7 6 6 6 6 6 7 7 7 7 7 7 7 7 8 8 8 8 9 9 9 9
4 5 4 5 5 5 5 4 4 4 3 3 2 2 2 2 2 2 2 2 2 2 2 2 2 2 2 2 2 2 2 0 2 3 3 1 1 2 2 0 0 1 2 2 2 1 1 2 2 3 3 4 5 4 3 2 3 4 5 6 6 6 5 5 5 5 5 5 5 6 6 6 6 7 7 7 7 8 8 8 8 9 9 9 10 10
6 6 6 7 8 8 8 8 7 7 6 4 3 2 2 2 2 3 3 2 2 2 2 2 1 1 2 1 1 2 2 0 2 3 3 2 1 2 2 1 0 1 2 2 2 1 1 2 3 2 2 2 2 2 1 2 3 4 5 5 5 5 4 4 4 4 5 5 6 6 6 7 7 7 8 8 8 8 9 9 9 10 10 10 10 10
9 9 9 9 9 9 8 8 8 7 7 6 4 3 3 3 3 2 1 0 1 2 2 1 1 1 2 1 2 2 1 1 1 2 3 3 1 1 2 1 0 0 1 2 2 2 3 3 2 2 2 2 1 1 2 2 3 4 5 5 5 5 5 5 5 5 6 6 7 7 7 8 8 8 9 9 9 9 9 10 10 10 10 10 9 8
9 9 8 8 8 7 7 6 6 6 5 5 4 4 4 4 3 1 1 1 1 2 2 2 2 1 1 2 2 2 1 1 2 2 3 3 1 1 2 1 0 0 1 2 2 3 3 2 2 2 1 2 1 1 2 3 4 4 5 6 6 6 6 6 7 7 7 7 8 8 8 9 9 9 9 9 10 10 10 10 10 10 10 8 5 3
7 7 7 7 6 6 5 5 4 4 4 3 3 3 3 3 3 2 2 1 1 2 1 1 2 2 1 1 2 1 1 1 2 2 3 3 1 1 2 1 0 0 0 1 2 2 2 2 2 1 1 1 1 1 2 3 3 4 5 6 7 7 7 7 8 8 8 8 8 8 9 9 9 9 9 10 10 10 10 11 10 9 7 5 3 2
3 4 4 4 4 4 3 2 2 1 2 3 3 2 2 3 3 3 3 2 2 2 1 1 1 1 1 0 1 2 2 2 2 1 3 2 1 1 1 1 1 0 1 1 2 2 3 2 2 2 1 1 1 1 2 2 2 3 3 5 5 6 7 7 8 8 8 8 8 8 9 9 9 9 9 10 10 10 10 11 10 7 3 2 2 2
1 2 1 1 1 1 2 1 1 1 2 2 2 2 2 2 2 3 2 2 2 2 2 2 2 1 1 1 0 1 2 3 2 1 3 2 1 1 1 0 1 1 1 2 1 1 2 3 3 2 2 1 1 2 2 2 2 2 2 2 3 4 6 7 7 7 7 7 8 8 8 9 9 9 9 9 10 10 10 11 9 7 3 2 2 2
2 2 2 1 1 1 1 1 1 1 1 1 1 1 1 2 2 2 2 2 3 3 3 2 2 2 2 2 2 2 2 3 3 2 3 2 1 1 1 1 0 1 0 2 2 2 1 2 2 2 2 2 2 2 2 2 2 1 1 1 1 2 4 5 5 6 6 7 7 8 8 9 9 9 9 9 10 10 10 10 9 7 3 2 2 3
2 2 1 1 1 0 1 1 1 1 1 1 1 1 1 1 1 2 2 2 2 3 3 3 2 2 2 2 2 2 2 2 3 3 4 3 1 0 1 1 0 0 1 1 1 2 2 1 2 2 2 2 2 2 2 2 2 2 2 1 1 2 3 3 3 3 3 4 5 6 8 8 9 9 9 9 9 10 10 10 9 8 5 3 2 3
1 1 1 0 0 0 1 1 1 1 2 2 2 2 1 1 1 1 1 1 2 2 3 3 3 2 2 2 2 2 2 3 3 3 4 3 2 1 1 1 0 0 1 1 0 0 1 1 1 2 2 2 2 2 2 2 2 2 2 2 2 2 2 1 1 2 2 2 3 3 5 5 7 8 8 9 9 9 9 9 10 9 8 5 3 3
1 1 0 0 0 1 1 1 1 1 1 2 2 2 2 2 1 1 1 1 1 2 3 3 4 4 3 2 2 2 2 3 2 1 3 3 2 2 1 1 1 1 1 0 0 0 1 1 1 1 2 2 2 2 2 2 2 2 1 1 2 2 2 2 1 2 2 2 2 2 2 3 4 5 6 7 8 9 9 10 10 10 10 9 7 5
1 0 1 1 1 1 2 1 1 1 1 1 1 2 2 2 2 1 1 1 1 1 1 2 2 3 3 3 3 2 3 2 2 1 2 2 2 2 1 1 2 2 2 1 1 0 0 1 1 1 1 2 2 3 3 2 2 2 2 1 1 1 2 2 1 1 1 2 2 2 2 2 3 3 4 7 8 9 10 10 10 10 11 11 10 9
1 1 1 1 2 2 2 2 2 2 2 1 1 1 2 2 1 1 1 1 1 1 0 0 1 1 2 3 3 3 3 2 1 1 2 2 2 2 2 1 2 2 2 2 1 1 0 1 1 1 1 1 2 2 3 3 3 3 2 2 2 2 2 2 1 1 1 2 3 3 3 3 3 3 4 7 8 8 9 9 10 10 11 11 12 12
1 1 2 2 2 2 2 2 2 2 2 2 1 1 2 2 1 1 1 1 1 1 0 0 1 2 2 2 2 2 2 2 1 0 1 1 2 2 1 1 1 1 2 2 2 2 1 1 1 1 2 2 2 3 2 2 2 3 3 2 2 2 2 2 2 2 2 3 3 4 4 3 3 3 3 4 3 3 4 4 5 7 9 9 10 12
1 2 2 2 2 2 2 2 2 2 2 2 2 2 2 1 1 1 1 1 1 1 1 1 1 2 3 4 4 4 4 3 2 1 1 2 2 2 2 1 1 1 1 2 2 2 2 2 2 2 2 2 2 2 2 1 2 2 3 3 3 3 3 2 2 2 2 2 3 3 3 3 2 2 2 2 1 1 2 2 3 3 4 3 5 8
2 2 2 2 2 2 2 2 2 2 2 2 2 1 2 1 1 1 0 0 1 1 2 2 2 3 3 4 4 5 5 4 3 3 2 2 2 2 3 2 2 2 1 1 1 2 2 2 2 3 3 2 2 2 2 2 2 2 3 3 3 3 2 2 2 2 2 2 2 3 3 2 2 2 2 2 2 2 2 2 2 2 2 1 1 3
2 2 2 2 2 2 2 2 2 2 2 2 2 2 1 1 1 1 1 1 1 1 2 2 2 2 3 3 4 4 5 5 5 5 4 4 4 4 4 3 3 2 2 1 1 2 2 2 3 3 3 3 3 4 4 3 4 4 4 3 3 3 3 4 3 3 3 3 3 3 3 3 3 3 3 3 3 3 3 3 2 2 2 2 2 2
3 2 2 2 2 1 1 1 2 2 3 2 2 1 1 1 1 0 0 0 1 1 1 1 1 2 3 4 4 4 5 5 6 6 6 6 5 5 5 4 4 3 2 2 2 2 3 3 3 3 3 3 4 4 4 4 4 4 5 4 4 4 5 5 3 2 2 3 3 3 4 3 3 3 3 3 3 3 3 3 3 3 3 2 2 2
2 2 2 2 2 1 1 2 2 2 2 2 1 1 2 2 2 2 1 1 1 1 2 1 1 1 2 3 3 3 4 5 6 7 7 6 6 6 6 5 4 4 3 3 3 3 3 4 4 4 3 3 4 4 5 4 4 4 4 4 3 3 3 3 2 1 1 2 2 2 2 3 3 3 3 3 3 2 2 3 5 5 5 4 3 3
2 2 2 1 1 1 1 1 1 1 2 2 2 2 2 2 2 2 2 2 1 1 1 1 1 1 1 2 3 3 3 4 4 6 7 7 7 7 6 6 5 4 4 3 3 3 3 4 4 4 4 4 4 5 5 5 4 4 3 4 4 4 3 3 2 2 2 2 2 2 2 2 2 2 3 3 2 2 2 3 3 4 4 4 4 4
1 1 1 1 1 1 1 1 1 2 2 2 2 2 2 3 3 3 2 2 1 1 1 1 0 0 1 2 2 2 3 3 3 3 4 6 8 8 6 5 5 4 4 4 4 3 3 3 3 3 3 3 4 5 6 6 5 4 4 4 5 5 5 4 3 3 3 3 3 3 3 2 2 2 3 3 3 3 3 3 3 4 4 4 4 4
1 1 1 0 1 1 2 2 2 2 2 2 3 3 3 3 3 3 3 2 2 1 1 1 1 1 2 2 2 2 2 2 2 2 2 3 4 5 5 5 5 4 4 4 4 4 4 4 3 3 3 4 5 6 6 6 5 5 4 5 4 4 5 4 4 4 4 4 4 4 3 2 1 2 3 3 4 4 3 3 4 4 4 4 4 4
2 2 1 1 1 1 2 2 2 2 2 3 3 3 3 3 3 3 2 2 2 2 1 1 1 2 2 2 2 2 2 2 2 1 1 2 2 3 3 4 4 5 4 4 4 5 5 5 4 4 4 4 5 6 6 5 5 5 4 4 4 4 4 4 4 4 4 4 3 3 2 1 1 2 3 4 4 4 4 4 4 4 4 4 4 4
3 3 2 2 2 1 2 2 2 2 3 3 3 3 3 4 4 4 2 2 2 2 2 1 2 2 3 3 2 2 3 3 2 2 1 2 3 3 3 3 3 4 4 5 6 6 6 6 6 5 5 5 5 6 5 5 4 4 4 4 4 4 5 4 4 3 3 3 3 3 2 1 2 3 4 4 5 5 4 4 4 4 4 4 4 5
3 3 3 2 2 2 2 2 2 3 3 3 3 3 3 4 5 6 3 3 3 3 3 3 3 3 3 3 3 3 4 3 2 2 2 2 2 3 3 3 3 3 3 4 5 6 6 7 7 8 7 7 7 7 6 5 5 4 4 4 4 4 4 4 4 3 3 3 3 3 3 3 3 3 4 5 6 6 5 5 4 4 4 4 5 5
3 3 3 3 3 3 3 3 3 3 3 3 3 3 2 3 3 4 4 3 3 3 3 3 3 3 3 3 3 3 3 3 2 2 2 2 2 3 3 3 3 3 2 3 3 3 3 4 6 8 10 11 10 9 7 6 5 4 4 4 4 4 4 4 4 3 3 4 4 4 4 4 4 4 4 5 6 7 7 6 5 4 4 4 4 5
3 3 3 3 3 3 3 3 3 4 4 3 3 3 2 2 3 3 3 3 3 4 4 4 4 4 4 4 4 4 4 3 3 2 2 2 2 3 3 3 3 3 2 2 1 1 1 2 3 4 8 12 14 13 8 7 5 4 4 4 3 3 3 4 4 4 4 4 4 4 4 4 3 3 3 4 5 6 7 6 5 4 3 3 3 4
Wind_Direction
118 134 137 125 112 91 58 54 77 99 111 104 94 83 75 61 47 41 55 66 71 71 70 67 64 63 67 73 78 83 89 95 101 105 109 111 113 115 117 118 119 120 120 120 120 120 120 119 117 114 111 106 101 96 90 84 79 76 72 68 62 54 43 29 16 4 356 351 348 346 344 343 342 341 341 339 336 332 329 327 327 327 327 327 326 324
124 128 126 117 110 99 79 51 56 73 94 95 94 92 93 83 59 33 43 69 78 80 80 78 72 69 66 71 78 85 93 101 108 114 117 120 122 124 126 127 129 129 130 130 131 132 132 132 130 127 124 122 120 116 110 100 91 83 75 66 57 47 37 24 12 2 355 351 348 346 345 342 341 338 335 332 328 325 323 323 324 324 324 323 322 320
135 126 125 114 111 108 104 73 61 61 71 77 82 87 92 88 70 26 15 70 85 91 94 93 88 82 75 75 86 99 108 117 123 128 130 132 134 135 137 139 140 142 143 143 145 145 145 145 144 142 140 138 136 132 123 109 96 85 74 62 51 40 29 16 5 357 351 347 344 341 339 336 334 331 327 323 320 319 319 320 321 322 321 320 318 316
135 128 130 111 102 103 109 105 92 80 73 77 87 103 106 101 93 327 312 70 100 108 114 114 113 111 106 100 114 129 138 142 144 145 146 146 147 148 149 152 153 155 158 158 158 158 157 157 155 153 150 147 143 134 119 103 90 79 67 55 43 29 15 2 352 346 341 338 335 333 330 327 324 321 317 315 314 314 314 315 316 316 315 313 312 311
134 128 130 117 105 99 101 107 114 118 116 136 171 169 146 143 162 214 264 302 108 121 130 130 133 136 139 143 158 165 163 161 159 157 155 154 154 156 157 159 161 164 167 166 166 165 163 160 157 153 147 139 132 120 102 89 78 67 56 42 26 8 353 342 336 332 329 326 323 321 319 316 314 311 309 307 306 306 306 307 308 307 307 306 306 306
128 122 124 118 114 111 106 111 129 142 140 185 212 204 173 164 170 184 208 187 162 157 161 154 151 152 153 162 174 178 177 174 170 166 160 156 154 154 155 155 158 159 160 160 160 158 153 149 143 138 129 119 109 97 85 74 62 49 33 14 355 340 331 325 321 318 316 313 311 310 308 306 304 303 301 299 297 296 296 297 298 299 299 300 300 301
114 107 106 105 107 109 112 127 155 165 156 190 233 249 215 173 172 177 186 178 171 170 178 180 162 153 155 167 175 180 183 181 178 173 163 155 148 144 142 142 142 142 142 141 140 137 132 126 121 116 109 101 93 83 69 53 32 9 351 337 327 320 315 311 308 307 305 303 302 301 299 297 296 294 292 291 289 288 287 288 289 291 292 294 295 295
115 109 100 104 107 110 115 134 182 206 187 181 189 212 263 260 234 215 202 142 130 137 150 164 125 111 139 164 171 174 176 176 179 176 162 149 138 131 131 131 130 129 126 123 120 117 112 109 106 102 97 91 83 61 19 343 329 323 318 313 309 306 303 301 300 299 298 297 295 294 292 290 288 286 285 284 282 281 281 281 283 285 287 289 290 290
122 127 130 133 135 134 134 152 194 219 216 191 177 172 171 182 245 348 15 13 19 61 117 103 70 28 3 88 125 128 122 131 133 131 121 110 102 107 116 118 121 123 122 119 116 115 113 117 122 129 150 236 262 274 282 288 293 296 298 297 297 296 296 296 296 295 294 293 291 289 287 285 283 281 279 278 277 277 277 278 279 281 283 285 286 286
125 134 140 145 146 145 143 156 185 209 214 196 184 174 160 157 148 116 66 1 336 345 62 91 91 63 0 2 19 43 59 66 88 105 115 112 108 103 98 104 111 125 139 144 156 177 200 219 232 241 249 254 259 264 270 275 280 284 286 288 290 292 293 294 294 294 293 291 289 286 284 281 279 277 275 273 273 272 273 275 276 277 279 281 282 283
128 130 126 127 127 130 133 149 170 186 166 113 337 314 164 147 139 133 130 166 271 334 14 53 85 94 60 7 4 14 33 24 24 41 91 109 115 114 113 116 131 161 183 202 217 229 237 242 246 249 252 256 259 263 267 271 275 279 281 285 288 291 293 295 295 295 293 291 288 285 282 279 277 274 273 271 270 270 271 272 273 273 274 276 277 278
131 127 118 123 120 119 125 137 134 113 93 82 20 327 313 296 130 129 134 153 166 166 18 4 24 62 94 68 16 9 22 17 357 343 354 33 101 119 123 129 179 219 226 241 248 251 252 253 254 255 256 257 260 264 267 270 274 277 280 285 289 293 296 297 296 295 293 290 287 284 281 278 276 274 272 271 270 269 269 269 269 269 269 270 271 272
121 118 115 127 139 148 152 136 103 82 103 136 161 192 239 262 120 111 116 133 155 166 148 70 15 2 15 51 55 36 26 5 342 327 334 321 306 178 127 134 235 271 268 285 288 281 269 269 270 270 268 267 268 271 273 276 279 282 285 290 295 298 299 298 297 295 292 289 287 284 281 278 275 273 272 271 269 268 267 267 266 265 264 264 265 267
115 111 113 131 153 169 170 158 155 162 178 178 179 182 195 194 83 80 84 80 105 178 103 93 56 355 342 355 16 47 58 21 352 343 337 310 282 212 139 132 167 266 56 24 320 299 292 303 304 300 297 296 288 284 289 291 291 292 295 298 300 302 300 297 295 293 291 288 285 282 279 276 273 271 270 269 268 267 266 265 264 263 261 260 261 263
134 129 131 153 171 181 180 166 162 166 180 181 173 156 114 56 59 68 79 62 354 0 47 50 34 5 341 329 336 11 61 52 27 357 335 311 295 257 125 116 93 344 37 36 314 299 309 344 354 336 334 331 311 295 297 302 300 297 297 299 299 299 297 295 293 291 289 287 284 280 276 273 271 269 268 268 268 267 267 266 265 263 261 261 261 262
148 144 150 167 180 188 188 162 149 146 157 154 113 90 78 66 64 75 93 100 47 33 49 41 23 357 335 322 327 352 51 62 58 28 344 315 305 302 103 106 86 346 354 350 294 291 313 342 354 339 319 301 295 292 290 289 289 290 292 293 293 294 293 292 292 291 290 289 286 282 278 274 271 269 268 267 267 267 267 266 266 265 265 264 265 266
152 153 158 162 175 190 200 135 125 127 132 107 83 85 100 113 113 103 101 96 72 61 66 78 70 358 320 320 322 330 29 67 69 45 11 320 304 301 84 111 119 265 309 297 280 279 305 320 321 308 287 289 291 292 290 288 287 287 288 288 289 289 289 290 290 290 290 289 287 284 280 277 273 271 268 267 266 265 265 265 265 266 266 267 268 269
154 157 152 151 161 169 148 99 96 101 103 92 78 68 73 91 99 101 99 97 91 88 91 107 132 164 198 289 297 300 335 81 78 53 18 314 298 297 11 100 118 155 271 284 282 279 282 280 274 275 281 287 289 289 288 287 286 286 286 286 286 286 285 285 286 286 287 286 284 282 280 277 274 271 269 266 265 264 263 263 264 265 266 267 268 269
158 157 144 148 150 143 111 103 106 114 115 118 109 93 64 45 57 74 88 103 116 125 130 128 153 180 178 203 249 270 298 95 91 78 26 295 287 294 333 60 82 104 277 273 270 269 269 268 272 277 284 287 288 287 286 285 285 285 285 284 284 283 282 281 281 281 281 280 280 279 277 275 274 271 269 267 266 264 264 263 263 264 265 266 267 268
145 151 157 147 133 118 95 91 107 126 137 131 118 108 105 84 67 68 80 103 120 128 127 128 158 209 199 200 236 256 269 91 90 88 108 269 277 287 318 55 78 57 303 276 267 262 263 269 276 280 283 284 284 284 284 283 283 283 284 283 283 282 280 278 277 276 276 276 276 275 275 274 273 272 270 268 267 266 266 265 265 265 266 266 267 267
134 176 218 148 124 115 109 112 122 124 127 112 101 95 102 99 91 85 108 101 94 91 94 123 193 216 201 195 222 237 222 107 99 97 86 289 288 289 302 82 93 81 308 284 275 270 272 274 273 274 275 282 283 284 283 283 283 284 285 284 284 281 279 276 274 272 272 272 272 273 273 272 271 270 269 268 268 267 267 267 267 267 267 268 268 268
129 150 245 108 107 111 117 128 122 103 103 97 96 99 112 110 110 114 129 101 98 104 126 198 215 215 198 197 217 229 203 127 120 119 93 336 301 292 293 57 90 85 289 279 278 283 289 282 276 277 284 289 288 287 286 285 286 287 288 287 284 281 277 274 271 269 268 268 268 269 269 269 269 268 268 268 268 268 268 269 269 269 269 269 269 270
107 103 85 83 91 101 112 117 110 91 86 94 106 122 141 138 140 148 158 144 146 160 187 212 226 236 228 227 239 241 202 135 123 116 103 95 281 282 289 6 64 64 261 265 275 288 305 294 285 286 292 293 291 290 288 288 289 290 289 286 283 278 273 270 266 264 264 265 266 267 268 269 270 270 271 271 271 272 272 272 273 273 273 274 274 274
95 97 94 94 98 104 109 110 103 91 83 92 105 123 142 146 151 155 160 152 149 147 152 21 355 344 327 308 295 286 259 138 116 109 110 164 253 269 284 354 33 335 269 263 265 282 305 295 288 285 289 289 289 288 289 291 292 290 287 283 279 275 270 266 264 263 264 266 269 271 273 275 276 277 278 278 278 278 278 278 279 279 279 279 279 279
102 107 110 114 117 118 118 115 112 107 100 98 101 110 121 122 119 112 99 95 88 76 56 40 16 341 310 297 287 280 274 164 118 115 121 159 249 272 282 303 83 266 272 274 277 287 302 291 286 282 282 285 284 282 283 285 286 285 284 282 279 275 271 269 268 269 271 274 277 279 280 282 283 283 284 284 283 282 283 282 282 282 281 281 281 280
114 119 122 122 122 122 122 121 120 117 114 109 106 103 92 77 63 52 38 37 52 69 68 54 355 289 284 286 279 272 269 244 124 124 130 139 216 280 286 284 184 229 275 285 288 292 287 281 280 280 283 280 269 254 245 262 275 281 282 281 280 279 278 277 278 280 279 281 283 283 283 283 283 283 283 282 282 282 282 281 281 281 281 281 281 281
109 111 113 113 114 116 118 120 121 120 117 115 114 110 95 77 65 52 16 328 140 127 123 143 233 269 290 290 278 265 252 214 159 138 131 126 135 269 280 278 248 234 282 286 281 272 270 270 270 272 279 277 265 250 244 260 271 277 279 278 278 277 277 276 277 277 278 279 280 281 281 281 281 280 280 280 280 280 280 280 280 280 281 281 281 282
102 104 105 106 108 110 112 115 117 118 119 119 118 114 101 92 90 102 237 223 163 128 135 164 193 229 264 272 270 265 249 215 197 169 127 114 125 244 264 270 263 140 283 288 286 281 279 274 269 265 269 273 279 281 275 272 273 273 272 272 271 271 271 272 272 274 275 277 278 279 279 279 279 279 279 279 279 279 279 279 280 280 281 282 283 286
104 109 111 114 116 115 113 110 115 124 132 138 141 134 119 116 133 171 213 191 132 111 136 175 189 200 223 261 285 298 303 250 216 175 117 107 126 242 261 286 324 32 27 320 317 317 317 302 288 278 270 278 290 297 288 279 273 269 267 267 268 269 271 272 273 275 276 277 279 280 280 280 280 280 279 279 279 279 279 279 280 280 282 283 283 282
101 110 116 124 125 122 114 107 118 157 182 194 198 188 155 143 157 176 192 158 130 125 167 194 198 194 195 319 339 331 308 278 252 180 114 112 146 249 269 309 318 340 89 35 2 340 325 315 308 302 297 306 303 292 280 275 268 262 262 266 270 274 276 277 278 279 280 280 281 281 282 282 281 281 280 280 279 279 279 279 279 279 279 278 276 272
138 135 135 146 137 124 119 126 152 224 231 233 228 211 172 160 164 171 169 151 145 151 170 187 193 184 155 118 97 286 281 274 263 208 114 122 166 226 215 271 288 265 124 109 90 354 313 309 309 312 320 322 307 290 277 268 258 250 248 260 272 279 279 281 282 283 282 283 283 284 284 284 284 283 283 281 281 280 280 279 279 278 274 269 268 268
159 153 158 177 177 149 147 155 169 198 233 253 251 216 178 171 169 167 162 156 154 156 164 177 187 186 168 162 180 206 241 259 247 209 125 124 155 206 167 163 243 271 152 127 133 148 235 287 298 306 318 318 307 293 282 272 258 242 227 230 258 275 278 282 285 286 286 285 286 286 288 288 288 288 287 286 285 283 282 280 279 276 269 260 258 260
140 138 147 161 168 167 176 177 177 180 185 196 210 212 197 183 174 167 160 156 153 155 161 172 184 194 192 192 203 218 239 251 232 198 145 126 128 182 154 137 173 292 330 102 130 149 176 227 273 297 311 308 302 295 290 281 266 245 214 204 224 258 274 284 290 293 291 289 289 290 291 292 292 292 291 290 289 287 285 282 280 276 269 257 248 252
107 106 107 94 276 260 235 205 187 184 187 190 192 192 184 180 173 168 164 160 158 160 163 170 178 186 195 209 227 246 260 261 238 197 140 125 126 149 141 133 144 165 14 17 34 112 203 232 264 295 308 307 303 295 287 280 272 255 215 195 201 223 252 264 275 280 280 282 286 288 289 290 290 290 290 289 288 287 286 284 281 278 275 265 252 245
79 73 56 305 281 275 269 261 228 197 191 195 193 187 176 171 170 172 178 180 178 175 172 172 174 176 178 186 208 238 259 266 261 227 120 123 129 135 130 165 167 152 114 102 4 321 292 279 274 284 308 313 310 301 286 277 278 277 260 211 204 212 227 226 234 247 259 263 266 269 271 274 277 279 280 281 281 282 282 283 282 281 279 274 269 260
75 312 266 249 242 241 243 238 223 208 202 207 203 189 173 167 167 171 180 183 188 189 187 180 175 173 172 174 183 204 232 254 279 323 66 111 125 131 141 190 180 157 138 155 174 195 260 286 289 291 307 307 305 301 295 297 310 327 328 309 283 264 256 241 231 231 243 252 256 256 254 253 254 256 259 268 272 276 279 282 283 283 283 280 277 273
166 230 245 234 224 219 223 219 211 203 202 212 209 194 174 163 162 168 177 164 160 165 208 244 229 205 191 179 184 195 212 224 257 4 43 90 116 128 149 190 180 159 147 159 171 180 183 287 299 301 289 262 266 280 295 315 332 339 331 323 314 303 290 276 255 235 240 251 254 253 249 247 246 248 250 262 268 275 280 283 284 285 284 284 282 279
194 224 239 234 220 208 205 207 206 201 196 195 192 184 174 159 157 160 163 142 131 127 132 308 303 297 290 274 247 228 226 227 222 163 85 106 116 124 147 189 197 175 160 162 162 161 155 212 269 280 276 256 253 259 279 309 323 322 312 311 307 301 294 287 279 268 260 262 262 260 256 250 246 248 254 261 269 278 285 285 284 283 283 283 283 282
208 224 237 234 220 205 197 201 202 198 186 179 173 167 151 135 131 135 149 146 152 165 190 221 250 269 278 280 276 272 266 260 244 213 169 151 144 145 155 181 211 216 188 164 156 155 163 188 210 231 252 264 269 271 278 288 295 298 302 310 310 304 294 292 290 284 275 270 271 271 270 262 254 250 256 259 260 264 269 270 268 267 272 280 285 285
210 221 233 231 220 206 195 195 190 179 161 148 132 110 94 86 74 55 2 203 199 204 208 216 230 244 254 260 264 265 265 261 252 237 206 188 179 177 180 193 205 213 208 180 166 170 184 208 224 235 244 259 270 277 279 274 270 279 296 304 302 296 292 291 288 282 275 270 270 273 275 271 264 258 255 251 243 237 234 239 244 246 242 239 268 285
207 219 232 236 228 214 201 187 168 148 131 115 94 77 72 73 60 27 340 314 277 252 238 238 246 257 263 260 256 254 252 253 249 244 231 216 205 201 200 206 209 208 205 211 209 206 209 225 238 247 252 259 267 271 268 265 267 271 277 276 275 276 281 280 278 275 275 272 270 267 268 270 269 264 257 252 242 232 223 219 228 238 244 220 214 230
209 215 222 227 228 223 209 158 127 114 105 99 98 107 139 143 147 152 202 277 267 255 234 226 240 260 272 273 266 256 246 244 241 238 233 221 212 207 208 211 211 207 202 215 229 235 232 233 239 244 247 253 261 266 267 263 262 261 262 264 274 284 290 281 274 264 262 269 271 270 267 267 265 260 255 252 248 242 231 223 232 243 253 241 225 220
209 211 212 212 209 194 150 115 104 100 96 100 129 174 190 179 173 175 185 207 226 232 226 211 208 223 250 267 272 267 254 242 236 232 228 218 209 205 206 208 206 199 193 205 226 239 241 238 240 243 242 245 252 260 266 266 261 255 250 253 262 278 289 283 283 284 269 270 272 272 265 259 255 253 252 251 250 249 247 250 255 258 260 254 246 239
205 209 210 206 189 146 111 113 121 132 135 154 183 206 212 198 191 190 193 202 213 223 225 199 170 182 238 260 269 272 270 257 243 231 223 213 206 201 201 201 198 193 186 195 211 228 241 242 242 242 243 245 250 256 261 263 260 254 247 244 242 242 246 260 273 289 292 284 277 270 261 258 259 262 267 264 260 258 257 256 258 261 261 255 251 249
193 204 212 189 136 118 128 162 167 167 168 183 196 209 216 208 201 197 193 193 201 211 218 174 111 66 270 265 266 270 277 281 269 245 227 215 208 203 196 194 193 193 192 201 210 219 228 240 244 245 244 245 248 252 256 260 261 259 254 247 245 245 248 256 263 270 272 273 271 268 261 260 268 277 281 277 272 266 259 256 257 259 260 256 253 252
185 196 212 176 159 168 188 191 186 184 189 200 208 213 214 206 200 194 190 184 185 194 206 164 153 188 241 255 265 274 284 294 292 274 236 218 208 201 193 192 193 195 200 210 218 224 229 236 242 247 252 253 252 251 251 253 257 261 260 254 252 254 260 262 261 258 257 260 262 262 258 258 265 276 276 277 275 270 262 254 251 252 255 255 253 252
199 202 206 197 192 197 206 200 195 194 203 212 216 217 213 202 194 190 188 180 177 180 195 184 190 208 228 238 245 256 270 282 286 276 238 213 206 199 192 194 197 201 205 214 222 229 236 238 240 243 248 254 257 256 252 249 250 254 258 257 256 256 260 260 257 252 248 251 253 253 248 256 270 272 273 277 278 276 270 260 252 248 248 251 253 253
199 198 198 194 195 202 214 208 203 203 209 216 220 220 214 201 193 189 187 180 177 178 189 199 216 227 236 239 239 241 250 259 260 252 228 208 201 197 192 194 201 208 214 220 226 230 235 236 235 235 236 244 252 257 258 251 247 247 252 253 254 255 259 258 256 251 247 247 242 233 213 219 247 265 276 281 281 278 274 268 259 251 246 247 250 252
192 191 191 189 193 203 215 213 210 209 212 215 219 222 221 209 202 196 186 179 177 180 190 203 217 229 238 242 243 245 251 254 253 243 224 206 195 189 188 190 197 205 217 225 229 233 237 237 235 231 229 234 242 250 257 254 249 246 247 248 250 252 258 259 257 253 247 245 239 228 216 226 238 251 266 275 278 278 278 274 265 255 244 242 243 247
189 187 187 188 194 205 214 214 214 213 215 215 215 217 220 216 207 197 185 179 180 187 195 203 212 222 235 239 241 243 246 249 251 250 242 210 185 175 177 181 186 194 211 224 232 238 245 247 241 235 229 228 230 237 248 251 251 248 246 246 245 247 253 258 257 252 246 247 243 237 232 238 242 246 252 264 272 276 278 276 270 260 248 241 241 244
196 192 189 192 199 207 212 213 213 214 214 213 212 212 212 212 208 201 190 187 190 197 204 206 211 220 230 236 239 239 240 240 242 244 245 219 183 167 168 169 172 175 189 216 237 251 264 269 264 250 237 227 223 223 231 238 243 245 247 244 240 239 243 250 252 251 249 250 247 242 237 242 244 245 245 257 268 274 278 278 275 268 257 247 246 250